Regional Weather Roundup
Issued by NWS

Home | Current Version | Previous Version | Graphics & Text | Print | Product List | Glossary On
Versions: 1 2 3 4 5 6 7 8 9 10 11 12 13 14 15 16 17 18 19 20 21 22 23 24 25 26 27 28 29 30 31 32 33 34 35 36 37 38 39 40 41 42 43 44 45 46 47 48 49 50
000
ASUS43 KMKX 232221
RWRWI

WISCONSIN REGIONAL WEATHER ROUNDUP
NATIONAL WEATHER SERVICE MILWAUKEE/SULLIVAN WI
400 PM CST SUN NOV 23 2014

NOTE: "FAIR" INDICATES FEW OR NO CLOUDS BELOW 12,000 FEET WITH NO
SIGNIFICANT WEATHER AND/OR OBSTRUCTIONS TO VISIBILITY.

WIZ001-002-006>008-014>016-023>028-232300-
NORTHWEST WISCONSIN

CITY           SKY/WX    TMP DP  RH WIND       PRES   REMARKS
SUPERIOR ARPT  LGT RAIN  39  39  99 NW5       29.36F
ASHLAND        FOG       44  44 100 CALM      29.38F VSB<1/4
HAYWARD        FOG       40  40 100 CALM      29.36F VSB 1/4
SIREN          CLOUDY    39  38  97 NW5       29.38R
CUMBERLAND     FOG       41  39  93 CALM      29.36S VSB<1/4
RICE LAKE      FOG       42  41  97 E3        29.37S VSB<1/4
CHETEK         FOG       41  41 100 E5        29.35F VSB<1/4
LADYSMITH      FOG       44  43  97 SE5       29.37F VSB<1/4
EAU CLAIRE     CLOUDY    49  47  93 SE8       29.35F FOG
MENOMONIE      FOG       47  46  99 E3        29.35S VSB 1/4
NEW RICHMOND   DRIZZLE   40  40 100 NW8       29.37S WCI  34
OSCEOLA        CLOUDY    39  39 100 NW9       29.41R WCI  33
$$

WIZ003>005-009-010-017-018-232300-
NORTH CENTRAL WISCONSIN

CITY           SKY/WX    TMP DP  RH WIND       PRES   REMARKS
MANITOWISH WTR FOG       41  41 100 S6        29.38F VSB<1/4
ARBOR VITAE    FOG       44  43  97 S3        29.39F VSB 1/4
WOODRUFF       FOG       44  43  97 S3        29.39F VSB 1/4
RHINELANDER    FOG       43  43 100 SE5       29.40F VSB 1/2
EAGLE RIVER    FOG       43  43 100 CALM      29.40F VSB 1/4
LAND O LAKES   FOG       44  44 100 S3        29.41F VSB 1/4
PHILLIPS       FOG       42  42 100 CALM      29.38S VSB<1/4
TOMAHAWK       FOG       42  41  97 CALM      29.39F VSB<1/4
MEDFORD        LGT RAIN  43  43 100 SE5       29.38F VSB 1/4
MERRILL        RAIN      44  44 100 CALM      29.40F VSB<1/4
$$

WIZ029-030-035-036-043>047-232300-
CENTRAL WISCONSIN

CITY           SKY/WX    TMP DP  RH WIND       PRES   REMARKS
WAUSAU         LGT RAIN  46  45  96 E5        29.39F VSB 1/4
MOSINEE        FOG       46  46 100 CALM      29.41F VSB 1/8
MARSHFIELD     LGT RAIN  47  46  97 S5        29.39F VSB 1/4
STEVENS POINT  DRIZZLE   45  45 100 S5        29.41F
WAUPACA        LGT RAIN  48  47  97 SE7       29.42F
WAUTOMA        CLOUDY    47  47 100 S5        29.42F FOG
WISC RAPIDS    CLOUDY    49  46  90 SE6       29.41F FOG
CAMP DOUGLAS   LGT RAIN  48  48 100 E5        29.38F FOG
$$

WIZ011>013-019>022-031-037>040-048>050-232300-
NORTHEAST WISCONSIN

CITY           SKY/WX    TMP DP  RH WIND       PRES   REMARKS
ANTIGO         FOG       40  40 100 SE7       29.41F VSB<1/4 WCI  35
SHAWANO        DRIZZLE   48  47  95 CALM      29.43F
OCONTO         CLOUDY    43  43 100 SE5       29.46F
STURGEON BAY   CLOUDY    45  43  93 S12       29.47F
GREEN BAY      LGT RAIN  46  45  96 SE9       29.44F VSB 1
MANITOWOC      LGT RAIN  45  45 100 S15       29.47F FOG
APPLETON         N/A    N/A N/A N/A SE5         N/A  VSB 1/2
CLINTONVILLE   LGT RAIN  45  45 100 S6        29.42F
OSHKOSH        LGT RAIN  44  43  96 CALM      29.43F VSB 1/4
$$

WIZ032>034-041-042-053>061-232300-
SOUTHWEST WISCONSIN

CITY           SKY/WX    TMP DP  RH WIND       PRES   REMARKS
LA CROSSE      LGT RAIN  48  47  96 SE5       29.36S VSB 1/2
SPARTA         CLOUDY    49  48  97 CALM      29.38F
VIROQUA        CLOUDY    47  47 100 SE7       29.37S
BOSCOBEL       LGT RAIN  50  47  89 VRB6      29.38F FOG
PRAIRIE DU CHI DRIZZLE   49  47  93 E7        29.36F
PLATTEVILLE    CLOUDY    47  46  97 E9        29.38F
$$

WIZ056-057-062-063-064-067-068-232300-
SOUTH CENTRAL WISCONSIN

CITY           SKY/WX    TMP DP  RH WIND       PRES   REMARKS
REEDSBURG      RAIN      47  47  99 SE5       29.40S
BARABOO/DELLS  LGT RAIN  46  45  94 CALM      29.40S
LONE ROCK      RAIN      51  46  83 E9        29.39F
MINERAL POINT  RAIN      48  46  93 E8        29.38F
MADISON        LGT RAIN  48  47  96 S8        29.42F VSB 1
MIDDLETON      CLOUDY    48  48  99 SE5       29.42F
WATERTOWN      DRIZZLE   48  48 100 S9        29.43F
MONROE         RAIN      46  46 100 SE13G18   29.40F
JANESVILLE     LGT RAIN  50  46  87 SE9       29.43F FOG
$$

WIZ051-052-058>065-066-070>072-232300-
SOUTHEAST WISCONSIN

CITY           SKY/WX    TMP DP  RH WIND       PRES   REMARKS
MILWAUKEE      LGT RAIN  48  45  89 SE9       29.47F FOG
WAUKESHA       RAIN      46  46 100 SE7       29.46F FOG
MILWAUKEE/TIMM DRIZZLE   48  45  87 SE8       29.48F
RACINE         LGT RAIN  46  44  93 S10       29.49F FOG
BURLINGTON     DRIZZLE   47  47  99 SE3       29.45F
KENOSHA        LGT RAIN  48  46  93 SE9       29.46F FOG
FOND DU LAC    LGT RAIN  48  46  93 S8        29.44F FOG
SHEBOYGAN      LGT RAIN  45  43  93 S8        29.47F FOG
WEST BEND      DRIZZLE   46  45  93 SE5       29.45F
JUNEAU         CLOUDY    47  47  99 SE7       29.45F FOG
$$

LSZ147-162-232300-
LAKE SUPERIOR

STATION/POSITION TIME  TEMP    WIND        PRES    WAVE
                       AIR SEA DIR/SP/G            HT/PER
                 (UTC) (F)     (DEG/KT/KT) (MB)    (FT/S)
DEVILS ISLAND    2200   41     250/  5/  5  995.5R
PORT WING        2140   40      CALM  /  2  995.6F
SAXON HARBOR     2140   44      CALM  /  4  994.9F
$$

LMZ867-665-643>646-232300-
LAKE MICHIGAN

STATION/POSITION TIME  TEMP    WIND        PRES    WAVE
                       AIR SEA DIR/SP/G            HT/PER
                 (UTC) (F)     (DEG/KT/KT) (MB)    (FT/S)
CHAMBERS ISLAND  2100   45     140/  7/ 15  999.0F
N MID LAKE BUOY  2150   45 42  180/ 17/ 21  999.0F   6/ 6
NORTHPORT PIER   2100   43     160/  8/ 12  999.7S
SISTER BAY       2113          180/ 14/ 19   N/A
ALGOMA LAKESHORE 2013          220/ 13/ 15   N/A
KEWAUNEE LAKESHO 2200   42     150/ 10/ 11  997.7F
SHEBOYGAN LAKESH 2200   44 40  170/ 13/ 14  998.4F
PORT WASHINGTON  2100   43     210/  4/  6 1000.0F
ATWATER BUOY     2200   48      CALM  /  4  999.9F
MILWAUKEE LAKESH 2200   43     150/ 10/ 12   N/A
S MID LAKE BUOY  2150   46 43  140/ 14/ 16  999.2F   2/ 4
KENOSHA   LAKESH 2200   44     170/  9/ 11  998.3F
$$

TC  - TEMPERATURE IN CELSIUS
VSB - VISIBILITY IN STATUTE MILES
WCI - WIND CHILL INDEX
HX  - HEAT INDEX




USA.gov is the U.S. government's official web portal to all federal, state and local government web resources and services.